SWA2891 KLAX-KSFO

Flight info

Callsign SWA2891
Flight time 0h 54m
Altitude 34000
Route SUMMR2 STOKD SERFR SERFR4
Aircraft B738/M-SDE2E3FGHIRWXY/LB1

Departure

Time 2026-05-05 02:57
Airport Los Angeles International Airport (KLAX)

Arrival

Time 2026-05-05 03:51
Airport San Francisco International Airport (KSFO)
Time Latitude Longitude Altitude Speed Heading
2026-05-05 02:25 33.94786 -118.40174 94 ft 0 kts 141°
2026-05-05 02:48 33.94797 -118.40185 95 ft 4 kts 137°
2026-05-05 02:48 33.94815 -118.40209 94 ft 4 kts 121°
2026-05-05 02:48 33.94824 -118.40238 96 ft 4 kts 90°
2026-05-05 02:48 33.94824 -118.40246 95 ft 1 kts 82°
2026-05-05 02:52 33.94828 -118.40212 97 ft 8 kts 82°
2026-05-05 02:52 33.94836 -118.40139 95 ft 9 kts 84°
2026-05-05 02:53 33.94848 -118.40093 98 ft 5 kts 50°
2026-05-05 02:53 33.94886 -118.40079 98 ft 7 kts 14°
2026-05-05 02:53 33.94919 -118.40038 99 ft 7 kts 72°
2026-05-05 02:53 33.94926 -118.39979 99 ft 7 kts 82°
2026-05-05 02:54 33.94946 -118.39930 100 ft 0 kts 44°
2026-05-05 02:55 33.94959 -118.39920 101 ft 6 kts 30°
2026-05-05 02:55 33.95001 -118.39913 106 ft 6 kts 352°
2026-05-05 02:56 33.95039 -118.39948 108 ft 9 kts 288°
2026-05-05 02:56 33.95034 -118.40031 108 ft 18 kts 262°
2026-05-05 02:56 33.94975 -118.40584 107 ft 114 kts 263°
2026-05-05 02:56 33.94816 -118.41834 363 ft 174 kts 262°
2026-05-05 02:57 33.94669 -118.43328 1358 ft 196 kts 263°
2026-05-05 02:57 33.94505 -118.45074 2247 ft 210 kts 263°
2026-05-05 02:57 33.94347 -118.46885 2602 ft 223 kts 265°
2026-05-05 02:57 33.94274 -118.48776 3212 ft 227 kts 267°
2026-05-05 02:58 33.94224 -118.50709 3926 ft 233 kts 267°
2026-05-05 02:58 33.94113 -118.52629 4732 ft 238 kts 264°
2026-05-05 02:58 33.93945 -118.54694 5363 ft 252 kts 264°
2026-05-05 02:58 33.93771 -118.56796 6381 ft 254 kts 264°
2026-05-05 02:59 33.93599 -118.58934 7234 ft 259 kts 264°
2026-05-05 02:59 33.93424 -118.61126 8102 ft 265 kts 263°
2026-05-05 02:59 33.93247 -118.63361 8966 ft 270 kts 263°
2026-05-05 02:59 33.93129 -118.64857 9598 ft 272 kts 263°
2026-05-05 03:00 33.92952 -118.67134 10427 ft 278 kts 263°
2026-05-05 03:00 33.92763 -118.69559 10683 ft 304 kts 263°
2026-05-05 03:00 33.92560 -118.72169 11159 ft 319 kts 263°
2026-05-05 03:00 33.92353 -118.74835 11759 ft 321 kts 263°
2026-05-05 03:01 33.92145 -118.77525 11982 ft 323 kts 263°
2026-05-05 03:01 33.91933 -118.80233 11980 ft 324 kts 263°
2026-05-05 03:01 33.91723 -118.82930 11983 ft 323 kts 264°
2026-05-05 03:01 33.91679 -118.85657 12235 ft 329 kts 270°
2026-05-05 03:02 33.91784 -118.88424 13133 ft 330 kts 271°
2026-05-05 03:02 33.91905 -118.91182 14060 ft 330 kts 271°
2026-05-05 03:02 33.92009 -118.93957 14806 ft 333 kts 270°
2026-05-05 03:02 33.92098 -118.96766 15530 ft 337 kts 270°
2026-05-05 03:03 33.92184 -118.99572 16264 ft 341 kts 271°
2026-05-05 03:03 33.92674 -119.02389 16956 ft 351 kts 289°
2026-05-05 03:03 33.93849 -119.05008 17693 ft 358 kts 297°
2026-05-05 03:03 33.95203 -119.07570 18371 ft 364 kts 298°
2026-05-05 03:04 33.96585 -119.10142 18988 ft 367 kts 298°
2026-05-05 03:04 33.97956 -119.12743 19676 ft 368 kts 297°
2026-05-05 03:04 33.99318 -119.15367 20355 ft 370 kts 297°
2026-05-05 03:04 34.00714 -119.17982 20980 ft 375 kts 302°
2026-05-05 03:05 34.02621 -119.20200 21580 ft 388 kts 318°
2026-05-05 03:05 34.04825 -119.22107 22224 ft 392 kts 319°
2026-05-05 03:05 34.07084 -119.24001 22789 ft 396 kts 319°
2026-05-05 03:05 34.09358 -119.25901 23358 ft 399 kts 319°
2026-05-05 03:06 34.11614 -119.27802 23865 ft 402 kts 319°
2026-05-05 03:06 34.13914 -119.29757 24310 ft 405 kts 318°
2026-05-05 03:06 34.16225 -119.31735 24740 ft 409 kts 318°
2026-05-05 03:06 34.18555 -119.33739 25171 ft 413 kts 317°
2026-05-05 03:07 34.20900 -119.35762 25596 ft 416 kts 317°
2026-05-05 03:07 34.23267 -119.37805 26030 ft 419 kts 317°
2026-05-05 03:07 34.25647 -119.39862 26444 ft 423 kts 317°
2026-05-05 03:07 34.28051 -119.41940 26860 ft 426 kts 317°
2026-05-05 03:08 34.30466 -119.44029 27258 ft 429 kts 317°
2026-05-05 03:08 34.32903 -119.46138 27648 ft 432 kts 317°
2026-05-05 03:08 34.35360 -119.48265 28036 ft 435 kts 316°
2026-05-05 03:08 34.37830 -119.50406 28420 ft 438 kts 316°
2026-05-05 03:09 34.40316 -119.52562 28790 ft 441 kts 316°
2026-05-05 03:09 34.42691 -119.54887 29153 ft 437 kts 309°
2026-05-05 03:09 34.44858 -119.57458 29522 ft 437 kts 306°
2026-05-05 03:09 34.46964 -119.60120 29891 ft 438 kts 305°
2026-05-05 03:10 34.49058 -119.62809 30254 ft 441 kts 306°
2026-05-05 03:10 34.51158 -119.65490 30546 ft 444 kts 306°
2026-05-05 03:10 34.53304 -119.68200 30821 ft 447 kts 306°
2026-05-05 03:10 34.55473 -119.70911 31090 ft 450 kts 307°
2026-05-05 03:11 34.57666 -119.73631 31367 ft 451 kts 307°
2026-05-05 03:11 34.59873 -119.76360 31636 ft 454 kts 307°
2026-05-05 03:11 34.62090 -119.79095 31913 ft 454 kts 307°
2026-05-05 03:11 34.64301 -119.81824 32272 ft 453 kts 308°
2026-05-05 03:12 34.66511 -119.84553 32657 ft 453 kts 308°
2026-05-05 03:12 34.68719 -119.87284 32999 ft 453 kts 308°
2026-05-05 03:12 34.70926 -119.90019 33364 ft 452 kts 308°
2026-05-05 03:12 34.73122 -119.92743 33724 ft 452 kts 308°
2026-05-05 03:13 34.75327 -119.95481 34035 ft 451 kts 308°
2026-05-05 03:13 34.79737 -120.00967 34038 ft 453 kts 308°
2026-05-05 03:14 34.84139 -120.06446 34048 ft 452 kts 309°
2026-05-05 03:14 34.88494 -120.11877 34051 ft 451 kts 309°
2026-05-05 03:15 34.92874 -120.17350 34061 ft 450 kts 309°
2026-05-05 03:15 34.97242 -120.22817 34061 ft 450 kts 309°
2026-05-05 03:16 35.01618 -120.28302 34064 ft 450 kts 310°
2026-05-05 03:16 35.05985 -120.33786 34060 ft 451 kts 310°
2026-05-05 03:17 35.10404 -120.39246 34059 ft 453 kts 312°
2026-05-05 03:17 35.15060 -120.44456 34058 ft 454 kts 314°
2026-05-05 03:18 35.19754 -120.49622 34049 ft 454 kts 315°
2026-05-05 03:18 35.24399 -120.54804 34048 ft 454 kts 314°
2026-05-05 03:19 35.31392 -120.62678 34041 ft 456 kts 315°
2026-05-05 03:19 35.36057 -120.67944 34051 ft 456 kts 315°
2026-05-05 03:20 35.40725 -120.73218 34046 ft 457 kts 315°
2026-05-05 03:20 35.45395 -120.78504 34044 ft 457 kts 315°
2026-05-05 03:21 35.50121 -120.83709 34052 ft 457 kts 320°
2026-05-05 03:21 35.55199 -120.88424 34052 ft 457 kts 322°
2026-05-05 03:22 35.60338 -120.93035 34045 ft 457 kts 322°
2026-05-05 03:22 35.65423 -120.97697 34042 ft 451 kts 322°
2026-05-05 03:23 35.67891 -120.99989 34031 ft 435 kts 322°
2026-05-05 03:23 35.70269 -121.02204 34027 ft 424 kts 322°
2026-05-05 03:23 35.74911 -121.06543 33925 ft 420 kts 322°
2026-05-05 03:24 35.77227 -121.08710 33596 ft 415 kts 322°
2026-05-05 03:24 35.79515 -121.10852 33200 ft 411 kts 323°
2026-05-05 03:24 35.81776 -121.12969 32833 ft 407 kts 323°
2026-05-05 03:24 35.84023 -121.15075 32436 ft 404 kts 323°
2026-05-05 03:25 35.86248 -121.17161 32052 ft 401 kts 323°
2026-05-05 03:25 35.88457 -121.19234 31670 ft 398 kts 324°
2026-05-05 03:25 35.90652 -121.21295 31291 ft 396 kts 324°
2026-05-05 03:25 35.92837 -121.23347 30914 ft 393 kts 324°
2026-05-05 03:26 35.95008 -121.25387 30545 ft 391 kts 324°
2026-05-05 03:26 35.97168 -121.27420 30173 ft 389 kts 325°
2026-05-05 03:26 35.99314 -121.29440 29741 ft 387 kts 325°
2026-05-05 03:26 36.01448 -121.31450 29311 ft 384 kts 325°
2026-05-05 03:27 36.03565 -121.33446 28906 ft 381 kts 325°
2026-05-05 03:27 36.05668 -121.35429 28529 ft 377 kts 325°
2026-05-05 03:27 36.07742 -121.37327 28148 ft 374 kts 328°
2026-05-05 03:27 36.09934 -121.39102 27739 ft 371 kts 330°
2026-05-05 03:28 36.12090 -121.40751 27358 ft 368 kts 331°
2026-05-05 03:28 36.14269 -121.42400 26986 ft 365 kts 331°
2026-05-05 03:28 36.16425 -121.44041 26624 ft 362 kts 331°
2026-05-05 03:28 36.18558 -121.45676 26263 ft 360 kts 330°
2026-05-05 03:29 36.20676 -121.47313 25905 ft 358 kts 330°
2026-05-05 03:29 36.22785 -121.48951 25529 ft 356 kts 330°
2026-05-05 03:29 36.24872 -121.50578 25186 ft 354 kts 330°
2026-05-05 03:29 36.26961 -121.52208 24833 ft 353 kts 330°
2026-05-05 03:30 36.29029 -121.53826 24474 ft 351 kts 330°
2026-05-05 03:30 36.31090 -121.55438 24125 ft 350 kts 330°
2026-05-05 03:30 36.33148 -121.57050 23765 ft 349 kts 330°
2026-05-05 03:30 36.35202 -121.58659 23351 ft 349 kts 330°
2026-05-05 03:31 36.37250 -121.60264 22960 ft 347 kts 330°
2026-05-05 03:31 36.39282 -121.61860 22579 ft 345 kts 330°
2026-05-05 03:31 36.41298 -121.63442 22238 ft 341 kts 330°
2026-05-05 03:31 36.43302 -121.65017 21884 ft 339 kts 330°
2026-05-05 03:32 36.45288 -121.66577 21534 ft 337 kts 331°
2026-05-05 03:32 36.47259 -121.68127 21183 ft 334 kts 331°
2026-05-05 03:32 36.49194 -121.69650 20853 ft 332 kts 331°
2026-05-05 03:32 36.51136 -121.71181 20518 ft 329 kts 331°
2026-05-05 03:33 36.53065 -121.72704 20171 ft 328 kts 331°
2026-05-05 03:33 36.54986 -121.74223 19839 ft 326 kts 331°
2026-05-05 03:33 36.56893 -121.75731 19503 ft 324 kts 331°
2026-05-05 03:33 36.58796 -121.77237 19174 ft 322 kts 331°
2026-05-05 03:34 36.60685 -121.78732 18841 ft 321 kts 331°
2026-05-05 03:34 36.62562 -121.80220 18519 ft 320 kts 331°
2026-05-05 03:34 36.64439 -121.81707 18156 ft 318 kts 331°
2026-05-05 03:34 36.66299 -121.83183 17795 ft 317 kts 331°
2026-05-05 03:35 36.68153 -121.84654 17443 ft 315 kts 331°
2026-05-05 03:35 36.69966 -121.86095 17443 ft 305 kts 331°
2026-05-05 03:35 36.71764 -121.87523 17417 ft 312 kts 331°
2026-05-05 03:35 36.73633 -121.89003 17130 ft 320 kts 331°
2026-05-05 03:36 36.75488 -121.90479 16870 ft 320 kts 331°
2026-05-05 03:36 36.77368 -121.91969 16615 ft 318 kts 331°
2026-05-05 03:36 36.79232 -121.93448 16353 ft 317 kts 331°
2026-05-05 03:36 36.81086 -121.94920 16093 ft 314 kts 331°
2026-05-05 03:37 36.83002 -121.96142 15802 ft 305 kts 347°
2026-05-05 03:37 36.85068 -121.96360 15487 ft 296 kts
2026-05-05 03:37 36.87105 -121.96054 15164 ft 294 kts
2026-05-05 03:37 36.89138 -121.95801 14817 ft 293 kts
2026-05-05 03:38 36.91172 -121.95601 14503 ft 292 kts
2026-05-05 03:38 36.93197 -121.95425 14180 ft 291 kts
2026-05-05 03:38 36.95211 -121.95360 13849 ft 291 kts 355°
2026-05-05 03:38 36.97163 -121.95968 13503 ft 292 kts 346°
2026-05-05 03:39 36.99100 -121.96736 13145 ft 291 kts 345°
2026-05-05 03:39 37.01029 -121.97515 12786 ft 291 kts 345°
2026-05-05 03:39 37.02949 -121.98288 12461 ft 289 kts 345°
2026-05-05 03:39 37.04865 -121.99052 12116 ft 288 kts 344°
2026-05-05 03:40 37.06770 -121.99806 11781 ft 287 kts 344°
2026-05-05 03:40 37.08678 -122.00557 11461 ft 286 kts 344°
2026-05-05 03:40 37.10569 -122.01299 11141 ft 284 kts 344°
2026-05-05 03:40 37.12453 -122.02038 10819 ft 283 kts 344°
2026-05-05 03:41 37.14324 -122.02771 10558 ft 280 kts 344°
2026-05-05 03:41 37.16171 -122.03495 10365 ft 275 kts 344°
2026-05-05 03:41 37.17376 -122.03967 10224 ft 272 kts 344°
2026-05-05 03:42 37.17745 -122.04112 10176 ft 271 kts 344°
2026-05-05 03:42 37.19567 -122.04826 9881 ft 270 kts 343°
2026-05-05 03:42 37.21335 -122.05518 9552 ft 270 kts 344°
2026-05-05 03:42 37.23127 -122.06221 9232 ft 269 kts 344°
2026-05-05 03:43 37.24938 -122.06931 8908 ft 269 kts 344°
2026-05-05 03:43 37.26695 -122.07619 8716 ft 265 kts 343°
2026-05-05 03:43 37.28441 -122.08306 8477 ft 264 kts 343°
2026-05-05 03:43 37.30217 -122.09004 8025 ft 270 kts 343°
2026-05-05 03:44 37.32020 -122.09714 7658 ft 272 kts 343°
2026-05-05 03:44 37.33822 -122.10425 7382 ft 271 kts 343°
2026-05-05 03:44 37.35626 -122.11137 7069 ft 272 kts 342°
2026-05-05 03:44 37.37436 -122.11851 6677 ft 275 kts 342°
2026-05-05 03:45 37.39335 -122.12536 5892 ft 292 kts 345°
2026-05-05 03:45 37.41347 -122.13216 5129 ft 305 kts 345°
2026-05-05 03:45 37.42736 -122.13684 4669 ft 306 kts 344°
2026-05-05 03:45 37.44579 -122.14309 4330 ft 292 kts 344°
2026-05-05 03:46 37.46447 -122.14945 4018 ft 264 kts 343°
2026-05-05 03:46 37.48145 -122.15526 3758 ft 241 kts 342°
2026-05-05 03:46 37.49698 -122.16056 3535 ft 223 kts 341°
2026-05-05 03:46 37.51131 -122.16550 3327 ft 209 kts 342°
2026-05-05 03:47 37.52513 -122.17036 3143 ft 206 kts 338°
2026-05-05 03:47 37.53649 -122.18082 2963 ft 206 kts 304°
2026-05-05 03:47 37.54454 -122.19595 2696 ft 210 kts 303°
2026-05-05 03:47 37.55197 -122.21161 2498 ft 206 kts 295°
2026-05-05 03:48 37.55803 -122.22802 2144 ft 206 kts 292°
2026-05-05 03:48 37.56343 -122.24469 1738 ft 203 kts 292°
2026-05-05 03:48 37.56898 -122.26045 1431 ft 189 kts 295°
2026-05-05 03:48 37.57461 -122.27425 1341 ft 166 kts 298°
2026-05-05 03:49 37.58015 -122.28629 1124 ft 152 kts 300°
2026-05-05 03:49 37.58533 -122.29734 929 ft 144 kts 300°
2026-05-05 03:49 37.59021 -122.30818 962 ft 141 kts 299°
2026-05-05 03:49 37.59505 -122.31910 959 ft 143 kts 298°
2026-05-05 03:50 37.59972 -122.33021 698 ft 142 kts 297°
2026-05-05 03:50 37.60425 -122.34104 370 ft 140 kts 298°
2026-05-05 03:50 37.60865 -122.35124 231 ft 126 kts 297°
2026-05-05 03:50 37.61240 -122.36022 61 ft 105 kts 299°
2026-05-05 03:51 37.61550 -122.36742 20 ft 77 kts 296°
2026-05-05 03:51 37.61728 -122.37167 21 ft 31 kts 298°
2026-05-05 03:51 37.61839 -122.37429 17 ft 33 kts 297°
2026-05-05 03:51 37.61896 -122.37641 20 ft 17 kts 273°
2026-05-05 03:52 37.61898 -122.37784 19 ft 17 kts 267°
2026-05-05 03:52 37.61897 -122.37814 19 ft 0 kts 267°
2026-05-05 03:53 37.61895 -122.37860 21 ft 7 kts 269°
2026-05-05 03:53 37.61884 -122.37901 19 ft 2 kts 225°
2026-05-05 03:54 37.61873 -122.37905 20 ft 2 kts 189°
2026-05-05 03:54 37.61856 -122.37901 18 ft 3 kts 163°
2026-05-05 03:54 37.61852 -122.37899 18 ft 0 kts 158°
2026-05-05 03:55 37.61833 -122.37871 17 ft 8 kts 122°
2026-05-05 03:55 37.61809 -122.37801 18 ft 9 kts 112°
2026-05-05 03:55 37.61785 -122.37727 17 ft 9 kts 111°
2026-05-05 03:56 37.61763 -122.37655 18 ft 9 kts 110°
2026-05-05 03:56 37.61744 -122.37587 19 ft 8 kts 111°
2026-05-05 03:56 37.61724 -122.37529 19 ft 7 kts 113°
2026-05-05 03:56 37.61722 -122.37521 19 ft 0 kts 113°
2026-05-05 03:57 37.61721 -122.37520 19 ft 2 kts 113°
2026-05-05 03:57 37.61704 -122.37470 19 ft 7 kts 116°
2026-05-05 03:57 37.61664 -122.37436 20 ft 9 kts 173°
2026-05-05 03:58 37.61600 -122.37466 21 ft 11 kts 210°
2026-05-05 03:58 37.61532 -122.37512 20 ft 11 kts 207°
2026-05-05 03:58 37.61462 -122.37557 21 ft 11 kts 207°
2026-05-05 03:58 37.61395 -122.37600 21 ft 10 kts 207°
2026-05-05 03:59 37.61382 -122.37609 20 ft 0 kts 208°
2026-05-05 03:59 37.61355 -122.37632 20 ft 10 kts 218°
2026-05-05 03:59 37.61305 -122.37714 20 ft 13 kts 248°
2026-05-05 04:00 37.61303 -122.37829 16 ft 15 kts 284°
2026-05-05 04:00 37.61348 -122.37955 14 ft 14 kts 298°
2026-05-05 04:00 37.61386 -122.38043 14 ft 11 kts 298°
2026-05-05 04:00 37.61442 -122.38101 14 ft 11 kts 356°
2026-05-05 04:01 37.61509 -122.38068 13 ft 10 kts 25°
2026-05-05 04:01 37.61573 -122.38080 13 ft 10 kts 319°
2026-05-05 04:01 37.61597 -122.38123 14 ft 2 kts 311°
2026-05-05 04:01 37.61626 -122.38131 14 ft 5 kts
2026-05-05 04:02 37.61634 -122.38130 15 ft 2 kts
2026-05-05 04:02 37.61647 -122.38128 16 ft 2 kts
2026-05-05 04:02 37.61660 -122.38127 15 ft 0 kts
2026-05-05 04:03 37.61661 -122.38127 15 ft 0 kts
2026-05-05 04:03 37.61662 -122.38127 15 ft 0 kts